ZDPS 2B (40902 NORAD) Tracking and Keplerian Element Data

This shows tracking and keplerian element data for the satellite.

Feedback or suggestion? Click here.




ElementValue
Catalog40902
NameZDPS 2B
Epoch Orbit44020
Epoch Day239.09562551
Epoch Year2023
RAAN254.9841
Inclination97.4521
Eccentricity0.0006137
Argument of Perigee193.8767
Mean Anonmoly166.2317
Mean Motion15.5129291
Decay Rate0.00064188
L11 40902U 15049D 23239.09562551 .00064188 00000+0 10879-2 0 9999
L22 40902 97.4521 254.9841 0006137 193.8767 166.2317 15.51292910440207



Live tracking and technical data element details for ZDPS 2B (NORAD 40902). ZDPS 2B can be tracked NOW for your location showing map with azimuth and elevation plus other details from your city location.







IsCatalogInMostPopularTable: catalog: 40902, numindb: 538
Update: records affected: 1



GetName: 40902 ZDPS 2B

Hit Count: updated at: Thu, 23 Jan 2025 18:12:18 GMT